TITAN 3C TRANSTAGE DEB, 1671

Orbit data source: Space-Track

TITAN 3C TRANSTAGE DEB, 1671 is space debris in LEO originally from a launch on Fri, 15 Oct 1965 UTC launched from the Air Force Eastern Test Range (AFETR). Debris objects in space refer to the collection of defunct objects orbiting the Earth. Examples of debris include non-operational satellites, rocket bodies, and fragments generated from explosions, collisions, or faulty payload assembly.

Loading next visibility...
Identifier
1671, 1965-082AJ
Orbit
LEO
Last TLE update
18 hours ago
Origin
Manufacturer
Unknown
Mission
Spacecraft
Bus & Motor
Unknown
Mass
Unknown
Launch date (UTC)
1965-10-15 (60 years ago)
Launch vehicle
Unknown
Launch site
Air Force Eastern Test Range (AFETR)
Object type
Payload
Rocket body
Debris
Shape & HBR
Unknown
Radar Cross Section
Medium (>0.1 m² and <1 m²)

Expand to show TLE details & history

TLE from 18 hours ago
0 TITAN 3C TRANSTAGE DEB
1 01671U 65082AJ  25189.55944607  .00000258  00000-0  51651-4 0  9998
2 01671  32.1604 257.6096 0052364  54.2851 306.2649 14.53632827136352
Epoch: 2025-07-08T13:25Z
TLE epoch observation values (Epoch: 2025-07-08T13:25:36.14Z)
Latitude
-0.00003°
Longitude
129.45628°
Altitude
690.632 km
Speed
7.525 km/s
True Right ascension
17h 10m 26s
True Declination
0° 00' 00"
Sunlit
Object was in full shadow at epoch
Visualization orbit readout
Latitude
-22.04424°
Longitude
-14.96294°
Altitude
753.446 km
Speed
7.46 km/s
Apparent Right ascension
07h 21m 08s
Apparent Declination
-30° 21' 52"
Sunlit
Object is in daylight
Visualization observer readout
Local Sidereal Time
19:05:26
Azimuth
340.267° N
Elevation
-79.927°
Doppler factor
1
Orbital elements
Apogee altitude
754.54 km
Perigee altitude
680.23 km
Semi-major axis
7,095.522 km
Eccentricity
0.00524
Inclination
32.1604°
RAAN
257.6096°
Arg. of periapsis
54.2851°
True anomaly
Unknown
Mean anomaly
306.2649°
Eccentric anomaly
Unknown
Mean motion
3.63134 °/min
Orbital period
99.14 mins
BSTAR
0.000051651
Loading maneuver chart data...
Loading SW <> Apogee altitude chart data...

TITAN 3C TRANSTAGE DEB Visibility forecast

Observer location: undefined°, undefined°

Span
Click to sort rows by Start time (UTC) header in descending order
Start Az.
Max El. time (UTC)
Max El. Az.
Max El.
End time (UTC)
End Az.
4 mins2025-07-09 07:47:01.444Z182.959° SSW2025-07-09 07:49:01.444Z156.725° SSE14.295°2025-07-09 07:51:01.444Z130.426° SE
6 mins2025-07-09 09:31:01.444Z212.689° SW2025-07-09 09:33:01.444Z176.585° S25.778°2025-07-09 09:37:01.444Z114.241° SE
7 mins2025-07-09 11:15:01.444Z235.203° WSW2025-07-09 11:18:01.444Z178.634° S27.664°2025-07-09 11:22:01.444Z123.787° SE
5 mins2025-07-09 13:00:01.444Z230.319° WSW2025-07-09 13:02:01.444Z201.027° SSW18.287°2025-07-09 13:05:01.444Z160.084° S
|